TimeCST,TemperatureF,Dew PointF,Humidity,Sea Level PressureIn,VisibilityMPH,Wind Direction,Wind SpeedMPH,Gust SpeedMPH,PrecipitationIn,Events,Conditions,WindDirDegrees,DateUTC
12:56 AM,70.0,66.9,90,29.94,10.0,South,13.8,-,N/A,,Scattered Clouds,190,2012-12-10 06:56:00
1:56 AM,70.0,66.9,90,29.93,10.0,South,12.7,-,N/A,,Partly Cloudy,190,2012-12-10 07:56:00
2:56 AM,69.1,66.9,93,29.92,10.0,SSW,11.5,-,N/A,,Clear,200,2012-12-10 08:56:00
3:37 AM,69.8,66.2,88,29.90,10.0,South,11.5,-,N/A,,Mostly Cloudy,190,2012-12-10 09:37:00
3:46 AM,69.8,66.2,88,29.89,10.0,South,11.5,-,N/A,,Scattered Clouds,190,2012-12-10 09:46:00
3:56 AM,69.1,66.9,93,29.90,10.0,SSW,9.2,-,N/A,,Partly Cloudy,210,2012-12-10 09:56:00
4:56 AM,69.1,68.0,96,29.88,10.0,SSW,10.4,-,N/A,,Scattered Clouds,200,2012-12-10 10:56:00
5:56 AM,69.1,68.0,96,29.86,10.0,South,12.7,-,N/A,,Mostly Cloudy,190,2012-12-10 11:56:00
6:56 AM,70.0,68.0,93,29.86,10.0,SSW,10.4,-,N/A,,Mostly Cloudy,200,2012-12-10 12:56:00
7:56 AM,72.0,69.1,91,29.86,10.0,South,10.4,-,N/A,,Mostly Cloudy,180,2012-12-10 13:56:00
8:31 AM,71.6,69.8,94,29.88,10.0,SSW,10.4,-,N/A,,Overcast,200,2012-12-10 14:31:00
8:56 AM,72.0,69.1,91,29.89,10.0,SSW,10.4,-,N/A,,Overcast,210,2012-12-10 14:56:00
9:11 AM,71.6,69.8,94,29.88,10.0,SSW,11.5,-,N/A,,Mostly Cloudy,200,2012-12-10 15:11:00
9:56 AM,73.0,69.1,87,29.88,10.0,SSW,12.7,-,0.00,Rain,Light Rain,200,2012-12-10 15:56:00
10:11 AM,73.4,69.8,88,29.87,10.0,South,11.5,-,0.00,,Mostly Cloudy,190,2012-12-10 16:11:00
10:14 AM,71.6,69.8,94,29.87,7.0,South,10.4,-,0.00,Rain,Light Rain,190,2012-12-10 16:14:00
10:46 AM,73.4,71.6,94,29.85,10.0,South,11.5,-,N/A,,Overcast,190,2012-12-10 16:46:00
10:56 AM,73.0,70.0,90,29.85,10.0,South,13.8,-,N/A,,Overcast,190,2012-12-10 16:56:00
11:56 AM,75.0,70.0,84,29.81,10.0,South,16.1,-,N/A,,Overcast,180,2012-12-10 17:56:00
12:48 PM,75.2,69.8,83,29.81,10.0,SSW,17.3,23.0,N/A,,Overcast,210,2012-12-10 18:48:00
12:56 PM,75.0,70.0,84,29.81,10.0,SW,16.1,23.0,N/A,,Overcast,220,2012-12-10 18:56:00
1:04 PM,77.0,69.8,78,29.80,10.0,SW,17.3,23.0,N/A,,Mostly Cloudy,220,2012-12-10 19:04:00
1:56 PM,73.9,69.1,85,29.80,10.0,SW,12.7,21.9,N/A,,Mostly Cloudy,230,2012-12-10 19:56:00
2:56 PM,72.0,69.1,91,29.80,10.0,WSW,10.4,20.7,N/A,Rain,Light Rain,250,2012-12-10 20:56:00
3:26 PM,73.4,66.2,78,29.78,10.0,WSW,10.4,20.7,0.00,,Mostly Cloudy,240,2012-12-10 21:26:00
3:56 PM,71.1,62.1,73,29.79,10.0,West,5.8,17.3,0.00,,Mostly Cloudy,260,2012-12-10 21:56:00
4:56 PM,66.9,62.1,84,29.79,10.0,WSW,4.6,-,N/A,,Mostly Cloudy,240,2012-12-10 22:56:00
5:40 PM,66.2,62.6,88,29.81,10.0,Variable,6.9,-,N/A,,Mostly Cloudy,0,2012-12-10 23:40:00
5:56 PM,66.0,63.0,90,29.82,10.0,West,3.5,-,N/A,,Overcast,270,2012-12-10 23:56:00
6:56 PM,66.0,64.0,93,29.83,10.0,West,3.5,-,N/A,,Overcast,280,2012-12-11 00:56:00
7:56 PM,66.0,64.0,93,29.84,10.0,Calm,Calm,-,N/A,,Overcast,0,2012-12-11 01:56:00
8:24 PM,66.2,64.4,94,29.85,10.0,NW,4.6,-,N/A,,Overcast,310,2012-12-11 02:24:00
8:56 PM,62.1,60.1,93,29.87,10.0,NNW,13.8,19.6,N/A,,Overcast,330,2012-12-11 02:56:00
9:56 PM,57.9,55.9,93,29.90,10.0,NNW,10.4,-,N/A,,Overcast,340,2012-12-11 03:56:00
10:56 PM,55.9,54.0,93,29.90,10.0,North,9.2,21.9,N/A,,Overcast,360,2012-12-11 04:56:00
11:56 PM,54.0,52.0,93,29.92,10.0,North,9.2,17.3,N/A,,Overcast,360,2012-12-11 05:56:00